Weather History for Roseburg, OR

Change the Weather History Date:

Sunday, February 10, 2013

  Actual Average Record
Temperature  
Mean Temperature 45 °F 45 °F  
Max Temperature 48 °F 53 °F 68 °F (1983)
Min Temperature 41 °F 37 °F 18 °F (1989)
Degree Days  
Heating Degree Days 20 20  
Month to date heating degree days 201 206  
Since 1 July heating degree days 2363 2525  
Cooling Degree Days 0 0  
Month to date cooling degree days 0 0  
Year to date cooling degree days 0 0  
Moisture  
Dew Point 37 °F    
Average Humidity 77    
Maximum Humidity 93    
Minimum Humidity 61    
Precipitation  
Precipitation 0.00 in 0.14 in 3.89 in (1961)
Month to date precipitation 0.18 1.64  
Year to date precipitation 2.59 6.73  
Sea Level Pressure  
Sea Level Pressure 30.31 in    
Wind  
Wind Speed 4 mph (North)    
Max Wind Speed 13 mph    
Max Gust Speed 15 mph    
Visibility 10 miles    
Events      
T = Trace of Precipitation, MM = Missing Value Source: NWS Daily Summary

Daily Weather History Graph

Daily Weather History Graph

Search for Another Location

Airport:

Trip Planner

Search our weather history database for the weather conditions in past years. The results will help you decide how hot, cold, wet, or windy it might be!

Date:

Astronomy

Feb. 10, 2013 Rise Set
Actual Time 7:17 AM PST 5:38 PM PST
Civil Twilight 6:48 AM PST 6:07 PM PST
Nautical Twilight 6:14 AM PST 6:41 PM PST
Astronomical Twilight 5:41 AM PST 7:14 PM PST
Moon 7:08 AM PST (2/10) 6:38 PM PST (2/10)
Length of Visible Light 11h 19m
Length of Day
10h 20m
New Moon, 0% of the Moon is Illuminated
Feb 10
New Moon
Feb 17
First Quarter
Feb 25
Full
Mar 4
Last Quarter
Mar 11
New

Hourly Weather History & Observations

Time (PST) Temp. Windchill Dew Point Humidity Pressure Visibility Wind Dir Wind Speed Gust Speed Precip Events Conditions
12:53 AM 42.1 °F - 37.9 °F 85% 30.30 in 10.0 mi Calm Calm - N/A   Overcast
1:53 AM 42.1 °F - 39.0 °F 89% 30.30 in 4.0 mi Calm Calm - N/A   Overcast
2:42 AM 42.8 °F - 39.2 °F 87% 30.29 in 10.0 mi Calm Calm - N/A   Overcast
2:53 AM 42.1 °F - 39.9 °F 92% 30.30 in 9.0 mi Calm Calm - N/A   Overcast
3:53 AM 41.0 °F - 39.9 °F 96% 30.30 in 7.0 mi Calm Calm - N/A   Overcast
4:53 AM 42.1 °F - 39.9 °F 92% 30.30 in 10.0 mi Calm Calm - N/A   Overcast
5:53 AM 42.1 °F - 39.9 °F 92% 30.30 in 10.0 mi Calm Calm - N/A   Overcast
6:53 AM 42.1 °F 39.2 °F 39.0 °F 89% 30.31 in 10.0 mi North 4.6 mph - N/A   Overcast
7:22 AM 42.8 °F 41.1 °F 39.2 °F 87% 30.30 in 10.0 mi NNE 3.5 mph - N/A   Overcast
7:53 AM 42.1 °F - 39.0 °F 89% 30.32 in 10.0 mi Calm Calm - N/A   Overcast
8:14 AM 42.8 °F - 37.4 °F 81% 30.31 in 10.0 mi Calm Calm - N/A   Overcast
8:53 AM 42.1 °F 40.2 °F 37.0 °F 82% 30.33 in 10.0 mi NE 3.5 mph - N/A   Overcast
9:53 AM 44.1 °F 41.5 °F 37.0 °F 76% 30.33 in 10.0 mi East 4.6 mph - N/A   Overcast
10:53 AM 45.0 °F 43.5 °F 36.0 °F 71% 30.33 in 10.0 mi NNE 3.5 mph - N/A   Overcast
11:53 AM 46.0 °F 43.9 °F 36.0 °F 68% 30.32 in 10.0 mi North 4.6 mph - N/A   Overcast
12:53 PM 46.9 °F - 36.0 °F 66% 30.31 in 10.0 mi North 6.9 mph - N/A   Overcast
1:53 PM 48.0 °F - 36.0 °F 63% 30.30 in 10.0 mi North 6.9 mph - N/A   Overcast
2:53 PM 46.9 °F - 36.0 °F 66% 30.30 in 10.0 mi North 11.5 mph - N/A   Overcast
3:53 PM 46.9 °F - 36.0 °F 66% 30.30 in 10.0 mi NNW 8.1 mph - N/A   Overcast
4:53 PM 46.9 °F - 36.0 °F 66% 30.29 in 10.0 mi North 5.8 mph - N/A   Overcast
5:53 PM 46.0 °F 43.1 °F 37.0 °F 71% 30.31 in 10.0 mi North 5.8 mph - N/A   Overcast
6:53 PM 45.0 °F 41.2 °F 36.0 °F 71% 30.32 in 10.0 mi North 6.9 mph - N/A   Overcast
8:53 PM 44.1 °F 41.5 °F 35.1 °F 71% 30.32 in 10.0 mi NNW 4.6 mph - N/A   Overcast
9:53 PM 44.1 °F 41.5 °F 35.1 °F 71% 30.33 in 10.0 mi NNW 4.6 mph - N/A   Overcast
10:53 PM 44.1 °F - 35.1 °F 71% 30.32 in 10.0 mi Calm Calm - N/A   Overcast
11:53 PM 43.0 °F - 36.0 °F 76% 30.32 in 10.0 mi Calm Calm - N/A   Overcast